Regional Weather Roundup
Issued by NWS Sioux Falls, SD

Home | Current Version | Previous Version | Text Only | Print | Product List | Glossary On
Versions: 1 2 3 4 5 6 7 8 9 10 11 12 13 14 15 16 17 18 19 20 21 22 23 24 25 26 27 28 29 30 31 32 33 34 35 36 37 38 39 40 41 42 43 44 45 46 47 48 49 50
000
ASUS43 KFSD 012302
RWRFSD

WEATHER ROUNDUP FOR SE SOUTH DAKOTA/SW MINNESOTA/NW IOWA
NATIONAL WEATHER SERVICE SIOUX FALLS SD
600 PM CDT MON JUN 01 2015

NOTE: "FAIR" INDICATES FEW OR NO CLOUDS BELOW 12,000 FEET WITH NO
SIGNIFICANT WEATHER AND OR OBSTRUCTIONS TO VISIBILITY.


SDZ038>040-050-052>070-020000-
SOUTHEAST SOUTH DAKOTA

CITY           SKY/WX    TMP DP  RH WIND       PRES   REMARKS
BROOKINGS      PTSUNNY   75  48  38 S21       30.03S
CHAMBERLAIN    SUNNY     79  61  54 S16G24    29.92S
HURON          MOSUNNY   79  57  46 S20G25    29.93F
MADISON        FAIR      75  50  41 S20G26    30.01F
MITCHELL       SUNNY     81  57  43 S20       29.96S
SIOUX FALLS    MOSUNNY   75  51  43 S14       30.02F
WINNER         FAIR      85  59  41 S18G28    29.91F
YANKTON        SUNNY     79  52  38 S16G24    29.98S
$$

MNZ071-072-080-081-089-090-097-098-020000-
SOUTHWEST MINNESOTA

CITY           SKY/WX    TMP DP  RH WIND       PRES   REMARKS
FAIRMONT       SUNNY     72  37  28 S14       30.11S
JACKSON        SUNNY     73  45  35 SE13      30.10S
LUVERNE        SUNNY     77  45  31 S16       30.05S
MARSHALL       MOSUNNY   75  45  33 S16G24    30.04S
MONTEVIDEO     SUNNY     75  45  33 S13G20    30.04F
PIPESTONE      SUNNY     75  46  35 S18G25    30.04F
REDWOOD FALLS  SUNNY     75  42  30 S16G25    30.06F
TRACY          MOSUNNY   76  46  33 S16G23    30.05F
WINDOM         SUNNY     73  45  35 SE14      30.09S
WORTHINGTON    MOSUNNY   75  45  33 S12G18    30.08S
$$

IAZ001>003-012>014-020>022-031-032-NEZ013-014-SDZ071-020000-
NORTHWEST IOWA

CITY           SKY/WX    TMP DP  RH WIND       PRES   REMARKS
DENISON        SUNNY     73  50  43 S15       30.07S
ESTHERVILLE    SUNNY     70  45  40 S15G22    30.09F
SIOUX CITY     SUNNY     78  47  33 S15G23    30.05S
SPENCER        SUNNY     74  46  36 SE17      30.08F
$$

ABBREVIATIONS USED IN REMARKS
   TC - TEMPERATURE IN CELSIUS
  WCI - WIND CHILL INDEX
   HX - HEAT INDEX
  VSB - VISIBILITY




USA.gov is the U.S. government's official web portal to all federal, state and local government web resources and services.